GFSSGP_sfc_30mbdewp_000.txt.gz
Dewpoint
70 67 66 62 37 32 35 40 44 46 48 51 53 51 55 57 54 54 63 67 68 67 68 71 75 75 75 75 75 75 75 75 75 75 75 75 74 74 74 74 74 74 73 73 73 73 73 73 73
66 66 64 50 26 30 38 38 40 43 52 55 55 54 54 57 60 61 64 67 69 68 68 70 74 75 75 75 75 75 74 75 76 75 75 75 74 74 74 73 73 73 73 73 73 73 73 73 73
66 65 54 31 29 27 37 43 46 50 50 46 53 55 54 59 61 61 65 67 68 69 70 72 75 75 75 75 76 75 74 75 75 75 74 74 74 74 73 73 73 73 73 73 73 73 73 72 72
63 60 52 31 34 38 42 46 48 46 47 48 50 55 60 61 62 63 66 68 69 70 71 72 74 75 75 76 75 74 74 75 75 75 74 73 73 73 73 73 73 73 73 73 73 73 72 72 72
61 53 30 31 39 42 43 44 42 42 43 47 48 52 59 64 64 65 66 67 67 69 71 72 75 75 75 75 74 75 74 74 75 74 73 73 72 73 73 72 72 73 73 73 73 73 73 73 72
48 44 27 29 39 44 46 47 41 44 49 50 51 55 62 64 63 65 65 65 66 67 69 71 74 75 76 75 74 75 75 74 74 74 73 73 73 73 73 73 73 73 72 72 72 72 72 73 73
44 31 28 30 41 43 46 48 42 43 45 48 52 54 64 62 63 64 64 65 65 67 68 70 71 73 75 75 74 75 74 74 74 73 73 73 74 73 73 73 73 72 72 71 71 72 72 72 73
45 33 28 29 31 41 47 46 46 45 50 54 53 52 61 63 63 64 64 64 68 67 69 69 70 70 70 71 74 74 74 73 73 73 73 74 74 73 73 73 72 72 72 72 72 72 71 72 71
44 25 23 27 30 42 47 46 52 51 55 59 58 54 60 63 63 63 63 64 66 66 67 68 70 70 70 70 71 73 73 73 72 72 72 72 66 68 68 68 72 72 72 72 72 72 72 72 71
32 20 25 34 34 41 46 47 50 52 56 60 59 62 64 62 62 62 62 62 64 65 66 66 67 69 70 68 70 70 68 67 67 67 69 68 67 68 69 71 73 72 72 72 73 72 72 70 67
25 24 38 43 43 45 46 48 49 48 48 57 59 62 62 61 61 61 61 62 63 65 65 66 68 69 68 67 69 68 68 67 68 70 70 69 68 68 68 66 67 67 69 66 67 67 66 65 66
27 42 42 48 47 44 43 46 53 54 55 60 61 62 62 60 59 59 60 61 63 65 65 67 69 70 70 69 68 67 66 67 67 67 70 70 68 67 67 66 66 67 66 66 66 65 66 67 65
36 45 48 48 45 44 42 47 55 58 60 62 62 63 62 60 60 60 60 61 63 65 66 67 69 70 71 71 68 67 66 66 66 67 68 69 67 67 67 68 67 65 66 66 67 66 66 66 64
41 45 46 44 40 40 41 46 47 60 61 61 62 61 62 61 61 61 60 61 62 64 64 67 69 70 72 72 71 71 69 68 67 66 66 69 69 67 66 67 66 66 65 69 68 67 67 66 66
46 44 47 43 46 40 39 42 50 59 61 60 60 61 62 62 64 64 64 64 65 65 66 67 69 70 71 71 72 71 69 67 66 66 68 69 70 68 69 68 67 68 69 68 67 68 68 67 66
37 37 37 43 45 44 48 40 52 56 56 58 59 60 62 63 63 64 65 66 67 67 69 70 69 68 71 72 72 72 69 68 66 65 65 67 69 70 70 68 68 67 68 67 66 67 67 68 65
33 27 28 38 45 45 43 41 50 53 52 54 57 59 60 61 63 64 65 67 67 67 68 70 70 69 69 70 70 70 69 69 68 67 67 68 70 70 70 71 68 69 68 68 66 67 67 66 67
21 23 27 30 40 44 40 44 47 50 49 50 53 56 58 59 60 63 65 66 67 68 70 70 70 71 71 71 71 71 71 71 71 70 70 70 70 70 70 68 69 69 68 67 67 67 67 66 65
13 17 24 28 36 38 39 46 45 47 49 47 48 54 55 56 58 61 64 66 66 67 68 70 70 71 71 71 70 70 69 70 69 69 69 70 71 71 72 71 69 70 69 67 68 69 68 66 65
13 14 17 32 39 39 45 45 48 48 44 48 48 52 53 55 57 61 63 64 65 66 68 69 71 71 72 70 71 71 69 67 68 70 70 69 68 69 68 68 66 66 66 67 68 69 67 65 66
16 15 17 25 42 41 45 45 50 50 51 49 52 52 55 56 57 59 61 63 64 65 68 69 71 71 73 72 69 66 62 64 60 61 61 64 67 66 67 67 66 66 67 66 66 68 67 65 64
16 21 21 24 40 29 41 26 47 49 51 52 51 55 55 57 58 58 59 61 62 65 68 71 73 72 70 67 63 63 56 57 59 60 60 64 63 65 65 66 66 66 66 67 66 67 68 67 65
23 32 31 32 37 36 42 34 29 46 48 49 51 51 53 56 57 57 56 59 62 67 69 69 68 66 65 64 62 57 58 56 58 59 60 62 62 64 64 65 65 65 65 65 66 66 67 67 66
35 37 37 34 28 26 24 30 20 30 43 45 49 52 54 55 56 58 58 61 65 65 65 62 64 63 63 61 61 61 61 60 57 58 59 57 58 60 62 63 63 64 64 63 64 65 66 67 67
27 23 18 18 18 16 27 26 21 26 44 43 46 52 54 55 56 57 60 63 63 64 60 59 62 63 62 57 57 59 59 60 60 60 55 60 56 57 57 61 60 60 62 62 63 63 64 66 66
19 15 11 12 10 10 32 18 23 39 42 41 46 49 54 55 55 57 61 62 63 62 59 59 61 61 58 58 61 61 61 56 57 57 59 56 56 56 60 59 60 60 61 61 61 62 61 61 63
19 18 16 16 15 12 13 24 32 38 41 43 48 50 53 53 54 57 60 61 61 58 59 60 61 60 59 58 62 61 61 61 59 61 61 57 60 56 55 59 59 60 60 61 62 60 59 60 62
23 21 17 15 15 15 14 15 16 28 30 40 45 50 54 53 54 56 58 60 58 57 58 59 61 60 59 59 59 57 58 60 60 60 60 60 60 60 60 59 59 59 59 59 60 58 58 61 61
22 20 22 20 20 15 15 14 25 25 28 33 44 50 54 52 51 55 57 60 56 56 57 58 59 59 59 59 58 58 58 58 58 58 59 59 60 60 59 60 60 59 59 59 59 58 56 57 57
20 18 21 20 25 21 20 15 28 27 30 33 38 49 52 54 49 49 56 59 55 56 54 55 56 56 56 57 57 57 58 59 58 57 58 58 58 59 59 60 61 60 59 59 60 59 58 58 58

GFSSGP_sfc_30mbdewp_006.txt.gz
Dewpoint
70 68 67 59 51 35 35 35 39 40 43 47 56 59 52 60 51 55 63 66 66 67 70 72 75 75 74 74 74 75 74 75 75 75 74 74 74 75 74 74 74 74 73 73 73 73 73 73 73
64 65 59 56 33 28 33 38 39 41 43 47 51 54 56 57 59 62 64 65 66 66 68 71 75 75 75 74 74 75 74 75 75 75 74 74 74 74 74 73 74 73 73 72 73 73 72 72 72
62 63 56 41 32 30 33 37 38 40 43 46 49 53 55 57 60 64 65 66 67 70 71 74 75 75 75 75 75 75 75 75 75 74 74 73 73 72 73 73 73 73 73 72 72 72 72 71 71
59 57 54 27 28 31 32 34 37 41 44 49 51 51 56 61 63 65 67 67 69 70 71 74 75 74 75 75 75 75 75 75 74 74 74 73 72 72 72 72 72 72 72 72 72 72 71 71 71
65 61 36 30 31 32 32 33 36 38 41 46 52 52 55 63 65 66 67 67 67 69 71 73 76 76 75 75 75 75 74 74 74 73 72 73 73 72 72 72 72 72 71 71 71 71 70 70 71
50 52 32 32 31 37 29 32 35 38 45 48 51 53 55 61 62 65 67 67 67 67 70 72 75 75 75 75 75 75 74 74 74 73 73 73 73 72 72 72 72 71 70 70 71 71 70 70 70
48 46 35 37 41 39 43 33 36 40 44 49 52 53 55 57 59 64 65 67 67 68 69 71 72 74 75 75 74 75 74 74 73 73 73 73 73 72 72 72 71 70 71 70 71 71 71 71 71
54 50 31 36 40 40 44 34 38 42 44 50 53 52 53 55 59 61 63 66 67 68 70 71 71 71 72 73 75 75 74 74 73 72 72 72 73 72 72 71 71 71 71 71 71 72 72 72 71
52 39 29 31 32 39 41 40 41 43 46 49 51 53 55 56 58 60 65 66 67 67 68 69 70 71 72 72 72 74 74 74 73 72 72 72 70 71 69 62 66 71 71 70 71 71 72 72 72
28 27 29 31 32 43 45 44 44 46 47 47 48 54 56 56 56 60 59 61 62 65 67 67 68 70 71 69 73 73 72 72 72 71 72 71 69 71 70 63 68 71 71 71 71 71 72 71 69
26 22 26 34 38 46 42 50 54 59 47 49 50 54 55 56 56 55 60 60 61 65 64 65 70 71 71 71 71 72 71 70 70 71 71 71 71 68 69 69 70 71 71 70 71 70 71 69 69
26 31 30 30 41 39 36 49 53 53 54 53 52 54 55 56 55 55 56 57 61 60 64 68 69 72 71 70 69 69 69 70 68 70 71 71 69 69 69 68 68 69 69 68 69 68 70 68 68
29 31 30 36 37 37 42 45 52 47 53 52 52 54 55 55 55 55 56 58 61 61 62 66 70 70 71 70 70 68 67 66 68 71 70 69 70 69 68 69 69 69 70 68 68 69 69 69 68
30 31 30 32 32 38 41 45 49 52 53 52 53 54 54 55 56 56 56 58 60 61 61 65 70 72 71 72 73 72 66 67 66 68 68 66 69 70 69 69 69 70 69 70 71 71 70 70 69
31 29 31 30 36 37 38 43 48 52 54 53 54 54 54 55 55 56 57 58 60 61 62 66 68 72 73 73 73 72 72 64 66 66 68 69 70 70 70 70 70 70 70 70 71 71 70 70 68
28 29 28 33 40 40 40 43 50 51 53 54 54 54 55 57 57 58 57 58 59 61 65 67 66 70 72 73 73 73 71 70 69 69 68 69 68 69 71 70 70 69 70 70 70 69 68 67 68
27 26 31 34 38 37 40 42 48 49 49 50 52 53 55 56 59 60 62 63 64 66 67 66 68 70 72 73 73 72 71 71 70 71 71 70 71 70 70 71 71 70 69 70 69 68 68 68 67
24 29 32 33 36 40 39 41 45 45 47 48 50 51 53 54 54 60 63 63 65 66 67 69 68 69 71 72 71 71 70 70 71 71 71 71 71 71 70 71 70 70 69 70 69 68 68 68 69
25 24 30 31 39 40 38 40 42 41 44 48 49 50 50 50 56 58 62 64 64 65 68 68 69 70 71 71 70 70 69 71 71 72 71 71 71 71 71 71 71 70 69 70 69 68 68 67 68
17 18 20 27 30 32 41 41 42 40 41 45 48 50 49 51 52 55 56 57 59 65 69 69 71 72 73 72 73 72 71 70 71 70 71 70 69 70 69 69 67 66 67 66 65 66 66 67 68
16 14 14 23 26 27 28 39 42 42 41 42 45 49 49 49 52 55 57 58 59 63 67 68 71 72 72 72 73 72 71 68 66 65 67 66 64 64 66 67 67 67 67 64 65 65 65 65 67
12 14 13 13 21 21 28 26 42 42 39 41 42 44 46 48 51 54 56 58 59 64 66 70 71 72 73 70 65 66 60 55 63 60 65 62 63 64 64 65 66 66 66 66 66 66 66 67 66
12 13 12 13 13 15 19 25 38 39 37 38 40 42 44 47 49 51 53 56 57 63 65 70 72 71 69 66 62 60 61 59 57 57 59 60 62 65 64 64 66 65 66 66 65 65 65 66 65
13 21 15 14 14 14 17 24 34 40 42 40 40 40 43 45 47 48 52 55 55 61 64 69 71 68 66 64 62 59 56 58 58 62 60 60 59 59 65 64 64 65 65 64 64 65 65 64 65
15 20 20 18 18 18 18 21 31 36 37 43 50 52 42 44 47 49 50 53 56 61 64 69 69 68 66 62 60 56 56 58 59 62 61 59 58 58 64 64 64 63 63 63 63 63 63 63 62
15 18 18 19 17 17 21 24 30 30 37 44 47 48 42 42 48 50 53 55 59 62 66 66 67 67 66 62 60 59 60 61 61 63 62 60 59 60 60 61 62 63 63 63 63 62 62 62 62
17 17 17 16 15 13 18 21 22 24 25 24 30 29 43 42 45 50 53 57 61 62 65 66 67 68 66 62 64 64 63 62 62 62 62 61 62 61 62 62 62 63 63 62 62 62 60 61 61
17 19 16 15 14 16 15 15 18 29 27 27 25 28 35 45 46 48 51 58 62 63 65 65 67 67 65 64 65 64 63 63 63 62 61 62 63 63 63 62 62 62 63 63 62 61 61 60 60
15 17 16 15 14 14 16 22 30 32 28 26 27 29 31 34 47 51 52 60 63 62 63 62 64 66 64 62 63 60 57 58 62 61 61 61 63 63 63 62 62 62 62 62 61 61 61 60 61
14 16 20 20 21 23 24 20 25 25 25 25 28 29 35 40 44 53 53 60 62 62 62 60 60 62 62 62 62 61 60 59 59 60 60 61 61 62 62 62 62 61 61 61 59 60 61 60 60

GFSSGP_sfc_30mbdewp_009.txt.gz
Dewpoint
71 71 70 66 59 52 38 44 49 51 54 57 58 55 57 60 56 55 65 67 69 71 73 73 75 74 74 75 74 74 74 75 75 75 75 75 75 75 75 75 75 74 74 73 73 73 73 73 72
67 63 66 61 48 36 37 39 41 50 55 58 56 58 60 59 62 64 66 68 69 71 73 74 74 74 74 74 74 75 74 74 75 75 75 75 75 75 74 73 73 74 73 73 73 72 72 72 71
67 63 61 57 35 36 35 40 43 51 57 57 57 58 59 60 63 64 66 67 68 70 74 74 75 75 74 74 75 75 75 75 74 75 75 75 74 73 73 73 73 73 73 72 72 72 72 71 71
54 58 59 39 31 34 36 41 45 50 52 54 59 59 62 64 63 65 69 71 71 72 74 75 76 76 75 75 75 76 75 75 75 74 74 74 74 73 72 73 73 73 73 72 72 72 71 71 71
62 57 48 33 33 34 36 39 43 48 51 58 61 60 62 65 66 67 69 70 70 72 74 75 76 76 75 76 76 75 75 75 75 74 73 74 74 73 73 73 72 72 72 71 71 71 70 71 71
48 51 46 33 34 33 35 41 46 51 52 58 62 62 63 66 65 66 68 69 70 71 74 75 76 76 76 75 74 75 75 74 74 74 74 74 74 73 73 72 72 71 71 70 71 71 70 70 71
50 48 47 35 33 35 37 44 45 48 52 53 62 61 62 64 66 66 67 68 70 71 73 75 75 75 75 75 75 75 75 74 74 74 74 74 73 72 72 72 72 71 70 71 71 72 72 72 72
52 50 44 44 38 35 39 42 46 49 51 55 57 57 58 63 66 67 67 67 69 71 72 73 74 75 75 75 75 74 74 73 74 74 73 74 73 72 71 71 72 72 71 71 71 72 72 73 73
51 47 43 45 43 42 44 41 46 51 52 54 53 56 58 64 66 66 67 68 68 70 71 71 71 73 74 75 75 75 74 74 74 73 73 73 72 66 62 69 68 71 72 71 71 71 71 72 71
49 47 36 45 44 45 48 51 54 49 50 53 54 55 59 61 64 65 66 66 67 68 70 70 71 72 72 72 74 74 74 74 73 73 72 72 71 70 69 69 67 68 71 71 71 71 71 72 71
47 41 40 41 42 50 51 50 52 52 48 52 54 54 56 61 63 64 66 66 67 67 67 68 70 71 72 72 73 73 73 73 72 72 72 71 71 70 72 69 71 71 71 71 71 72 71 71 70
31 37 41 43 47 50 47 52 45 47 51 54 55 55 56 56 60 60 60 63 66 66 67 69 71 71 71 71 72 72 72 71 71 71 71 71 70 70 70 70 70 70 70 70 69 68 70 69 68
30 32 37 41 44 51 52 48 47 48 51 55 55 56 56 56 55 59 59 63 61 65 68 69 70 71 70 70 72 70 70 71 70 71 71 71 70 69 68 70 67 69 70 68 69 70 69 69 69
31 29 37 38 43 47 50 49 49 49 50 53 54 55 55 56 56 57 59 61 60 63 68 70 70 72 71 72 71 72 71 68 69 71 70 70 71 70 70 68 68 70 69 71 70 69 69 69 69
32 29 31 37 40 46 48 49 51 52 51 52 54 55 55 56 56 57 59 60 61 62 69 70 70 71 70 71 72 72 72 71 68 69 69 67 68 70 70 68 69 69 69 70 71 71 71 70 69
30 30 29 38 39 45 48 47 51 53 52 52 53 54 55 56 57 57 60 60 62 61 63 69 71 71 71 72 73 73 72 71 70 70 69 69 70 69 70 69 69 69 70 69 69 69 68 68 68
28 27 34 37 38 38 44 48 51 53 53 54 54 54 56 56 58 58 60 60 62 65 64 65 69 71 72 73 73 73 72 72 71 70 71 70 72 71 70 70 70 71 70 69 69 69 69 67 67
26 27 35 35 37 37 41 48 49 51 53 54 54 56 57 58 59 60 61 62 64 63 66 67 68 71 72 72 72 73 72 71 71 71 71 70 70 70 69 69 69 70 69 69 69 68 68 68 67
28 27 33 35 36 38 38 46 48 48 49 49 52 54 55 57 61 63 63 64 66 66 66 67 69 71 71 71 70 70 68 70 70 71 71 71 70 70 70 69 70 70 69 68 68 67 67 66 67
21 31 33 35 38 39 39 42 44 48 48 48 50 51 53 54 62 63 63 63 65 66 68 68 70 71 71 72 71 72 72 71 71 71 72 71 70 70 70 69 67 66 66 65 65 65 64 66 67
19 19 29 34 39 39 41 42 47 47 46 49 50 51 51 55 60 63 64 64 66 68 69 70 70 71 72 71 73 72 71 71 67 66 65 62 62 65 65 64 65 66 66 64 65 65 65 64 66
16 17 15 18 36 36 41 39 46 47 45 46 49 50 51 54 55 58 58 60 67 68 70 71 71 70 72 72 71 69 67 58 64 63 63 61 65 62 62 63 66 65 66 65 65 65 65 65 63
12 14 13 13 15 26 33 26 41 45 43 43 46 50 50 53 54 57 57 58 64 68 68 71 70 71 72 66 66 62 56 57 62 62 60 57 59 63 64 66 64 64 64 64 65 63 64 64 64
16 12 15 14 14 13 17 24 40 42 41 40 43 47 48 52 54 56 58 59 64 66 70 70 72 70 67 62 60 57 56 58 59 60 56 59 58 62 66 64 62 63 64 64 63 64 63 63 63
12 11 18 17 14 13 17 16 31 41 41 40 44 44 46 50 53 55 56 58 63 66 69 72 69 66 65 61 61 58 58 58 58 58 61 59 59 63 62 62 63 61 62 62 63 62 62 62 61
12 16 22 19 19 19 21 21 28 41 43 44 44 43 42 46 50 53 55 56 63 65 70 70 67 66 64 64 61 58 59 58 60 64 63 58 58 61 63 61 63 62 62 63 63 61 61 62 61
14 17 20 20 23 20 23 25 32 40 41 43 45 45 42 42 48 51 54 56 61 65 69 69 67 66 65 63 61 60 61 61 63 62 61 60 64 60 62 61 61 62 63 63 62 62 61 61 60
17 20 16 19 15 16 18 27 27 31 36 39 46 45 45 46 49 51 54 57 61 66 68 68 67 66 65 64 63 63 63 63 62 62 61 61 61 62 61 62 62 62 61 62 62 61 61 60 60
19 18 18 20 20 16 19 26 38 32 30 28 26 41 45 47 50 55 56 58 62 66 67 67 67 66 66 64 63 64 65 64 63 62 61 61 62 63 63 63 62 61 62 62 62 61 61 60 61
16 16 21 23 19 25 25 26 30 31 31 33 34 37 36 44 49 53 53 58 62 65 66 66 67 67 65 65 63 64 58 59 62 61 61 61 61 62 62 61 62 62 61 61 60 59 59 60 59

GFSSGP_sfc_30mbdewp_015.txt.gz
Dewpoint
73 72 70 67 56 49 48 49 51 52 52 58 59 58 60 60 54 52 67 69 71 71 72 73 73 73 73 74 74 73 73 73 74 75 74 74 73 74 74 74 74 73 73 73 73 72 72 72 71
73 70 68 64 42 46 47 50 50 52 56 59 59 60 60 59 63 66 67 71 72 73 73 74 74 74 73 74 74 74 73 73 75 74 75 74 73 73 73 73 73 73 73 73 72 72 72 71 71
69 67 63 57 41 45 47 51 52 54 57 58 59 61 61 61 65 66 68 72 72 73 74 74 74 74 73 73 74 74 73 72 73 73 73 73 73 73 73 73 72 72 72 72 72 72 72 71 71
63 62 57 37 43 47 50 51 53 55 57 61 61 60 63 65 65 68 70 72 72 73 73 74 74 74 73 74 73 73 73 73 74 74 73 72 72 73 73 72 73 73 72 72 72 72 71 71 71
62 53 37 41 46 52 53 54 54 55 57 60 60 60 62 67 67 68 71 71 72 73 74 74 74 74 74 73 73 73 73 73 74 73 72 72 72 72 72 73 72 72 72 72 72 71 71 71 71
50 48 38 41 47 53 55 55 55 58 60 61 61 61 64 67 67 69 70 71 73 73 74 74 74 74 74 73 73 73 72 72 73 73 73 73 73 73 73 72 72 72 71 71 71 71 71 71 71
48 42 43 40 47 51 54 57 59 59 58 60 61 60 66 67 68 69 70 71 72 74 74 73 73 73 74 74 72 72 72 72 73 74 73 73 73 73 72 72 72 71 71 71 71 71 72 72 72
50 43 40 43 47 49 55 58 59 59 59 61 62 60 62 67 69 70 70 71 73 74 74 74 74 74 74 74 73 72 72 72 73 73 73 73 72 72 72 72 71 71 71 71 71 71 70 70 71
52 41 40 41 43 47 51 57 60 61 60 57 60 62 65 68 69 69 70 71 72 73 74 74 74 74 75 74 73 73 72 73 73 73 73 73 73 72 71 71 71 71 71 70 69 69 69 69 70
46 43 41 43 44 49 48 56 57 55 58 59 60 63 65 67 68 67 68 69 71 72 73 74 74 74 74 74 74 74 73 73 73 73 73 73 73 72 69 67 70 70 69 70 70 69 69 70 70
48 44 45 44 47 47 50 53 55 57 56 59 61 63 64 65 67 67 68 68 69 71 72 73 74 74 74 74 74 74 74 73 73 73 72 73 71 70 71 71 70 69 71 71 71 70 71 70 69
42 45 43 45 51 49 50 52 53 56 55 60 63 64 65 65 66 67 67 67 68 69 70 71 72 73 73 73 74 74 73 73 72 72 71 71 71 71 69 69 69 69 70 69 68 68 68 69 69
34 39 44 47 50 50 50 49 53 54 57 61 64 65 65 65 66 67 67 68 69 69 69 70 71 72 72 72 73 73 73 73 72 71 71 71 71 70 69 69 70 69 70 68 69 69 69 69 69
42 44 45 49 49 49 49 51 52 55 61 62 64 64 65 65 66 66 66 67 68 68 68 70 70 71 71 71 71 71 72 72 72 71 71 70 71 71 69 69 69 68 70 70 70 69 70 69 69
43 44 47 48 48 46 50 50 52 55 61 62 63 64 64 64 65 66 66 66 67 67 67 69 71 71 71 71 71 71 71 71 71 71 71 71 70 71 70 69 68 68 68 69 70 68 68 68 68
42 45 44 49 48 48 50 48 54 55 56 59 60 62 63 63 64 63 65 66 67 66 67 69 71 71 70 70 71 71 71 71 69 70 70 70 70 70 70 69 68 68 69 69 69 68 68 68 67
38 43 43 47 49 50 50 49 53 54 54 54 55 59 58 59 60 61 63 64 65 67 68 69 70 70 70 70 71 71 72 71 70 70 70 70 70 70 70 69 69 69 68 68 68 68 68 66 66
38 39 43 44 48 48 50 49 51 54 54 53 54 55 55 56 58 60 62 62 65 67 68 69 70 70 70 71 71 72 71 71 72 71 71 71 70 70 69 69 68 69 68 67 66 66 67 67 67
31 36 42 44 46 47 48 50 50 53 53 53 54 54 55 55 57 59 61 61 63 66 68 69 69 70 70 71 70 70 70 70 70 70 70 70 70 70 69 68 68 69 66 65 65 65 65 64 66
23 34 39 38 44 46 49 50 49 51 52 53 53 54 54 55 57 58 60 61 62 64 66 68 68 69 70 70 70 69 69 69 69 70 70 71 70 70 68 68 68 67 65 64 64 64 63 64 65
24 24 34 35 42 46 48 48 50 51 51 52 52 54 54 56 57 58 60 61 62 63 64 66 68 69 71 71 70 70 71 70 69 67 69 70 70 70 69 68 65 65 64 64 64 64 63 61 64
24 24 26 36 38 37 47 41 48 50 51 52 53 54 54 56 57 58 60 61 63 63 65 65 68 68 70 71 70 69 69 67 65 65 63 62 64 64 64 64 65 64 64 63 64 64 63 62 61
24 23 22 34 35 38 43 38 43 48 48 51 52 53 55 56 58 58 60 61 63 63 65 67 68 69 70 70 70 70 68 65 63 62 59 61 61 62 63 65 64 64 63 63 62 62 62 63 62
24 20 20 29 34 34 41 38 37 45 47 48 50 50 55 57 59 59 60 61 62 64 66 68 68 69 70 70 70 69 67 61 62 60 58 57 58 64 65 65 63 62 62 62 62 62 61 61 62
20 17 15 25 31 32 35 38 35 42 47 47 48 48 53 56 59 60 60 61 62 64 66 67 68 69 70 70 68 67 64 59 60 59 57 60 61 63 63 62 62 61 61 61 61 62 60 60 61
16 17 16 12 16 26 23 35 36 39 42 47 47 47 51 54 58 60 61 62 62 64 66 67 68 68 69 68 66 61 58 57 58 57 58 60 61 62 62 61 62 60 61 62 62 62 61 61 61
16 14 16 14 22 19 21 25 25 33 36 44 45 44 49 52 57 60 61 62 61 63 66 67 68 68 68 65 62 58 57 57 57 59 61 58 59 61 61 61 61 61 61 62 62 61 61 61 60
13 16 14 18 11 13 18 19 18 21 30 40 44 43 48 51 55 58 61 61 62 64 65 67 68 68 68 64 61 58 57 58 59 61 61 59 60 61 62 61 61 60 61 61 61 61 61 60 60
16 13 16 16 18 12 12 16 26 25 31 41 44 44 46 50 53 55 58 59 61 64 65 66 68 68 66 64 61 58 58 59 62 61 61 61 61 60 61 61 61 61 61 61 61 61 61 60 60
13 12 13 11 14 20 18 17 30 32 37 42 42 44 48 50 52 54 56 57 58 62 64 66 68 67 66 64 61 59 59 60 61 61 61 60 60 61 61 62 62 61 61 61 61 59 59 59 59

GFSSGP_sfc_30mbdewp_021.txt.gz
Dewpoint
72 72 69 67 51 47 46 48 51 51 54 58 58 55 58 60 54 51 66 67 67 68 70 71 73 72 72 72 72 71 71 72 72 73 73 72 72 73 74 74 74 73 73 72 72 71 71 71 71
71 68 68 64 46 43 47 50 50 52 58 59 60 59 58 58 62 64 65 68 68 68 70 70 73 73 72 72 72 71 71 72 73 74 73 73 73 73 73 73 73 73 73 72 72 72 71 71 71
68 67 63 50 47 44 46 51 52 56 59 58 58 60 59 60 63 64 67 69 70 70 71 72 73 73 73 73 72 72 73 73 73 73 73 73 73 73 73 73 72 73 72 72 72 71 71 71 71
66 64 58 44 44 50 50 52 56 57 59 59 57 57 61 63 63 66 69 70 70 71 71 73 73 72 73 73 72 73 73 73 73 73 73 73 73 73 72 72 72 72 72 72 71 71 71 71 71
63 56 43 45 48 52 52 53 55 56 58 58 58 57 59 67 67 68 69 69 69 70 72 72 73 73 73 73 73 73 72 72 73 73 72 73 73 73 72 73 72 72 72 71 71 71 71 71 70
56 49 42 39 48 53 52 55 57 58 59 59 58 57 62 67 66 67 68 69 69 69 71 71 73 73 73 72 72 72 72 72 73 72 72 72 73 73 73 72 72 72 71 71 71 71 71 72 72
51 45 43 47 48 50 53 55 57 58 58 58 59 56 63 64 65 67 68 69 69 70 70 71 72 73 73 73 73 73 73 73 73 73 73 73 73 73 73 72 72 71 71 71 71 71 70 69 70
50 43 45 47 44 45 54 57 59 58 57 61 59 57 60 64 66 67 68 68 68 70 71 72 72 72 71 72 73 73 73 73 73 73 73 73 73 72 72 72 72 71 71 70 70 70 69 69 69
49 40 43 46 46 46 55 56 59 60 59 59 61 60 61 66 66 66 67 68 69 70 71 71 71 71 72 71 71 72 73 72 73 73 73 73 70 70 71 72 71 69 70 70 71 70 69 70 70
48 39 40 46 48 48 55 56 58 58 56 58 62 63 66 65 65 63 64 65 67 68 70 70 70 70 71 70 71 71 71 69 71 71 72 71 71 72 71 71 71 71 72 71 71 70 69 70 68
47 39 42 44 49 51 54 56 57 55 53 57 61 63 64 65 64 62 63 64 65 67 68 70 72 72 71 71 72 72 71 70 71 73 72 73 71 71 71 70 70 70 70 69 69 69 68 69 69
40 46 43 44 50 52 53 55 54 54 53 57 61 63 64 64 64 63 63 64 65 67 68 69 71 73 72 71 70 71 70 71 70 70 72 71 70 70 70 71 70 71 70 70 70 69 70 69 70
34 39 44 47 49 51 53 53 51 53 59 60 62 64 64 64 65 65 64 65 66 67 68 70 71 72 73 73 70 70 70 69 70 70 70 70 69 69 71 71 70 71 71 69 71 70 70 69 69
38 43 49 48 49 52 50 53 53 55 60 61 62 62 63 64 65 65 65 66 67 67 68 70 71 72 73 72 73 71 71 70 71 71 69 71 70 70 72 71 71 70 70 70 70 71 70 69 69
45 45 48 48 49 50 51 52 52 55 59 60 61 62 63 64 65 65 65 66 66 67 67 68 70 71 72 72 72 71 71 71 70 70 71 72 72 71 71 70 69 70 70 71 70 71 69 69 68
43 43 40 48 48 51 48 42 51 58 58 58 59 61 62 63 65 66 66 66 66 67 67 68 67 69 71 71 71 71 71 71 71 72 72 73 73 73 72 71 70 70 71 69 70 69 68 67 66
42 36 40 46 47 50 49 45 50 57 57 58 59 59 61 63 64 65 66 67 67 68 68 68 69 69 70 71 71 72 73 72 71 72 72 72 71 72 72 71 71 72 70 70 69 68 67 64 64
36 38 40 43 47 48 48 47 52 57 57 58 59 59 61 62 64 65 66 67 67 68 69 69 69 70 72 71 72 72 72 72 72 72 72 72 70 70 70 71 70 71 70 68 67 66 65 65 64
36 37 38 45 47 46 46 47 50 56 57 57 59 60 60 61 62 64 65 66 67 68 68 69 69 71 72 71 70 70 70 70 71 72 72 72 70 70 70 70 70 70 67 66 67 65 64 62 65
38 37 37 43 47 45 45 45 49 53 56 57 58 59 60 61 62 64 65 65 66 67 68 69 70 71 72 71 70 70 70 71 71 71 72 72 72 72 71 70 69 69 66 67 66 65 61 62 66
36 37 39 38 44 47 45 43 46 52 54 55 56 56 58 59 60 61 62 64 65 66 68 69 70 71 71 71 71 72 71 71 70 70 71 71 72 72 72 70 69 69 67 63 65 64 64 59 63
23 38 40 40 41 38 45 36 43 48 52 53 53 54 55 56 58 58 60 62 63 65 67 69 70 71 71 72 70 70 68 67 68 69 69 71 72 71 71 70 69 68 65 64 65 64 64 63 59
23 33 36 39 39 40 43 40 37 49 49 50 52 53 54 54 55 56 58 59 62 64 65 67 70 71 71 72 71 70 69 69 69 68 68 69 70 71 71 70 68 67 64 66 65 65 65 63 62
27 29 34 39 37 36 36 40 32 43 47 47 49 52 53 53 54 55 57 59 61 63 64 66 69 70 71 71 71 71 70 70 68 67 66 66 66 65 67 67 67 67 66 65 64 64 64 64 64
24 26 25 27 33 27 32 40 36 37 43 45 46 50 52 53 53 55 56 58 61 62 64 65 68 69 70 70 71 71 71 71 69 68 65 64 63 62 64 66 67 66 66 65 64 64 63 63 62
23 20 21 22 23 24 34 34 35 41 41 44 47 48 51 52 54 55 57 59 61 62 64 65 66 67 69 69 71 71 71 70 69 69 65 63 62 61 65 66 66 66 64 64 64 63 63 63 63
22 21 22 21 22 23 26 34 34 38 38 40 42 45 49 52 54 54 56 59 60 62 64 65 66 67 68 68 70 71 71 70 69 68 66 63 62 62 65 65 66 64 63 63 64 62 63 64 64
19 21 17 19 19 17 20 24 19 28 31 37 40 42 46 50 53 55 56 59 61 62 64 65 66 67 68 68 69 70 70 70 70 67 63 63 63 63 65 65 64 64 63 64 64 62 62 63 62
16 17 20 20 20 19 18 18 28 26 29 29 32 38 41 47 52 54 58 59 61 62 63 64 66 67 68 69 69 70 69 69 65 64 62 62 64 64 65 65 64 63 63 64 64 63 63 63 62
9 13 17 17 22 19 18 17 26 29 29 33 31 34 42 47 50 54 57 59 60 62 62 63 65 65 67 68 69 69 68 64 65 62 62 63 63 63 63 64 64 64 63 63 64 63 61 62 61

GFSSGP_sfc_30mbdewp_024.txt.gz
Dewpoint
72 71 68 67 57 47 46 48 49 51 52 55 55 54 55 57 55 54 64 67 68 68 69 70 71 71 71 72 72 72 72 71 71 72 71 72 73 74 74 73 73 73 72 72 71 71 71 71 71
69 67 65 60 46 39 43 48 48 51 54 56 56 55 55 57 59 61 63 65 67 67 68 69 72 72 72 72 72 72 71 71 72 72 72 73 73 73 73 72 73 73 72 72 71 71 71 71 71
66 64 60 44 39 37 40 47 50 54 55 54 56 56 56 58 60 61 64 65 65 67 68 71 72 73 73 72 72 72 72 72 72 72 72 73 73 73 72 72 72 72 72 71 71 71 71 71 71
62 62 56 37 37 43 43 48 53 54 56 55 55 56 59 61 61 63 66 67 67 67 68 72 73 73 73 73 73 73 73 73 72 72 73 73 73 72 72 72 72 72 71 71 71 70 70 70 70
62 54 35 33 40 43 46 50 53 53 55 54 54 54 59 63 64 65 67 66 66 66 68 71 73 73 73 72 73 72 72 72 72 73 72 72 73 72 72 72 72 71 71 71 71 71 71 71 71
54 48 26 28 39 44 47 51 52 53 56 55 54 57 61 63 64 66 66 65 65 66 68 69 72 73 73 72 72 72 72 72 73 72 72 73 73 72 72 72 71 71 71 71 71 71 70 70 70
49 41 32 31 38 42 46 51 51 53 54 53 53 55 61 62 64 65 65 64 64 67 68 68 70 71 72 73 72 72 72 72 72 72 72 73 73 73 72 72 71 71 71 71 71 70 69 69 69
50 41 36 33 35 39 47 50 53 52 54 55 54 54 59 60 64 64 64 64 64 66 68 69 70 69 68 70 72 73 73 73 73 73 73 73 72 72 71 71 72 71 71 71 71 70 69 69 70
48 38 35 36 35 42 49 50 54 55 56 55 56 53 58 61 62 62 62 63 64 66 67 68 69 68 68 68 71 73 73 73 73 73 73 72 66 67 67 70 70 69 71 71 70 70 69 69 69
45 37 34 38 38 41 47 48 53 53 53 54 57 55 59 60 61 61 61 62 64 65 67 65 65 67 68 66 69 69 68 68 68 68 69 68 66 68 69 70 71 71 71 70 70 69 69 68 64
44 39 37 39 42 43 47 48 50 49 49 52 56 58 60 60 60 60 61 62 63 65 64 65 65 67 67 66 67 67 67 66 67 70 70 68 68 68 68 67 67 67 69 65 67 67 66 66 66
41 40 35 39 45 42 46 48 47 48 46 51 56 59 59 58 58 58 60 61 63 64 65 66 67 68 68 67 67 66 66 66 65 65 69 68 68 67 68 66 67 68 67 67 67 66 68 67 67
39 35 38 38 44 45 47 48 45 48 54 52 57 58 58 58 57 58 58 60 62 64 65 66 68 70 70 70 66 65 66 65 65 65 66 66 66 67 68 68 67 67 66 66 67 67 67 67 66
36 35 39 39 42 46 47 48 46 49 56 54 57 57 57 57 58 59 59 60 61 63 64 66 68 69 70 70 69 68 67 65 66 65 65 69 68 67 69 67 66 67 67 67 68 68 68 68 67
34 36 42 42 45 47 46 48 49 51 56 55 56 57 56 57 58 60 61 61 63 63 63 65 68 69 70 70 70 69 66 66 65 66 68 69 70 69 70 67 66 65 68 69 69 68 67 66 64
32 32 34 43 46 48 46 41 48 52 55 55 55 56 56 57 58 60 61 62 63 63 64 66 65 67 69 70 70 69 67 67 67 69 68 70 69 70 70 70 66 65 68 67 67 67 62 59 58
31 29 30 43 45 47 46 41 48 53 53 54 54 54 55 57 59 61 60 62 63 64 65 66 66 65 68 70 70 70 69 71 69 70 70 68 69 68 69 68 67 69 67 68 66 62 62 58 55
29 30 28 35 44 46 44 43 48 52 52 53 54 53 54 56 59 61 61 62 64 65 66 67 66 67 68 69 71 71 71 72 69 69 70 70 69 68 68 67 67 68 67 67 64 65 60 58 57
28 29 28 32 43 44 42 43 45 51 51 51 52 54 54 56 57 60 62 63 64 65 66 67 68 68 70 70 68 67 67 69 69 69 70 70 70 69 69 66 67 67 67 65 66 62 55 54 58
25 28 28 34 43 43 40 42 44 46 51 51 51 53 54 55 57 59 61 62 63 65 66 68 69 70 71 70 69 67 67 67 67 68 70 71 71 70 69 68 67 68 63 67 65 61 54 55 60
27 29 28 33 42 43 39 39 41 42 47 52 52 51 53 55 55 57 60 61 62 64 67 68 69 70 71 70 70 70 70 70 69 68 68 69 71 70 70 69 68 69 66 59 61 60 61 53 57
25 29 30 33 38 35 41 31 34 39 45 49 52 51 51 54 56 56 58 60 62 63 66 68 70 71 71 72 70 69 67 64 63 64 64 65 69 69 70 70 70 70 63 60 58 59 60 61 53
22 25 30 32 35 34 37 37 34 38 41 44 49 50 49 50 51 53 55 57 60 62 64 67 69 71 71 72 72 69 69 65 66 66 68 68 69 70 68 70 69 68 61 62 63 62 61 57 58
21 24 28 29 31 30 32 34 32 34 41 40 45 49 48 47 49 50 52 54 57 60 62 64 69 72 72 71 72 71 69 68 65 67 67 63 63 67 70 69 69 65 60 64 63 62 61 62 61
18 23 27 27 27 27 31 31 32 31 32 37 36 44 48 48 47 49 50 51 54 57 60 62 68 72 72 71 71 72 71 70 69 69 68 61 60 61 66 68 66 65 66 65 63 63 61 62 60
13 21 23 22 22 26 30 27 29 35 35 33 32 38 44 49 49 49 52 53 55 57 61 63 67 71 71 70 71 72 72 70 70 70 66 63 58 60 63 66 65 65 65 65 63 61 61 60 61
14 19 23 22 23 23 23 28 30 30 33 32 33 35 41 46 49 50 52 54 56 59 62 65 68 71 71 69 72 72 72 71 68 69 70 66 63 60 63 65 65 65 65 64 63 61 61 61 60
13 19 20 22 21 20 21 22 24 27 28 28 27 31 35 41 47 49 51 53 56 58 61 64 68 70 70 68 70 70 70 71 71 71 71 66 65 63 63 64 64 64 65 63 64 60 60 61 59
9 16 20 21 20 20 20 19 23 24 25 23 23 24 27 33 43 48 51 53 57 58 60 63 66 67 68 69 70 70 69 70 72 71 70 68 66 66 66 65 64 64 63 63 64 62 59 60 61
10 15 20 21 22 22 21 20 22 24 25 24 23 23 24 29 37 44 50 53 54 58 59 61 63 65 67 68 70 70 70 70 71 70 69 67 65 65 67 67 66 65 63 63 63 62 58 60 60

GFSSGP_sfc_30mbdewp_030.txt.gz
Dewpoint
72 71 70 69 60 57 49 49 53 52 51 53 59 59 59 61 53 56 66 67 68 69 70 71 72 72 71 71 71 72 72 73 74 74 74 74 73 73 73 73 72 72 71 71 71 71 71 70 70
69 69 69 64 55 49 47 51 53 51 51 55 56 56 55 55 60 63 64 66 67 67 68 69 73 72 72 72 72 72 71 72 73 73 74 73 73 72 72 72 72 72 71 71 71 71 71 71 70
66 66 62 59 49 48 47 50 52 51 53 55 56 55 55 57 60 62 65 65 65 65 67 71 73 73 73 73 73 72 72 72 73 73 73 73 72 71 72 72 71 71 70 70 70 70 70 70 70
66 66 64 56 43 47 49 51 49 49 52 52 53 56 58 60 60 64 65 66 66 66 68 72 72 73 73 73 73 72 73 72 72 72 72 72 72 71 72 71 71 70 71 70 71 70 70 70 70
67 63 55 38 42 45 45 50 49 48 53 53 54 57 58 60 63 64 64 64 65 66 68 71 73 73 73 74 73 73 73 72 72 72 72 72 71 72 71 70 70 70 71 71 71 70 69 70 70
61 58 51 28 33 43 45 48 47 48 51 53 54 57 59 62 62 64 65 65 67 67 68 70 73 74 74 74 74 73 73 72 72 72 72 72 72 71 70 70 70 71 71 71 71 70 69 69 69
56 51 45 27 31 36 39 47 47 44 49 51 55 56 57 62 62 63 64 65 63 66 68 71 72 73 73 73 73 72 72 72 72 72 72 72 71 71 70 69 70 70 71 71 70 70 69 69 69
53 52 43 34 30 32 38 44 46 44 49 53 54 53 56 58 62 63 64 61 62 65 68 70 72 71 72 72 72 72 72 72 72 72 72 72 71 71 70 70 71 70 70 70 70 70 69 69 69
53 48 39 36 32 34 39 38 46 48 45 55 53 53 58 56 61 59 60 61 63 63 65 67 70 72 70 69 70 72 72 72 72 72 72 72 70 69 70 71 70 69 71 71 71 70 71 70 70
54 50 45 44 37 35 37 39 42 44 44 48 52 54 55 56 56 59 62 63 62 62 64 64 65 66 68 66 71 71 70 70 71 71 71 70 69 69 70 71 70 70 70 71 71 71 70 71 71
52 46 46 46 38 37 36 39 40 42 43 45 51 53 54 54 56 60 60 64 63 65 65 66 66 67 66 70 71 70 70 69 70 71 72 71 70 68 67 70 71 71 72 71 70 70 69 69 70
50 51 48 38 38 36 35 36 41 41 43 47 52 55 55 53 53 53 58 59 64 63 63 65 68 67 69 70 68 68 68 68 68 68 69 69 70 67 69 71 68 70 72 71 68 70 71 67 69
49 48 48 35 33 36 37 35 35 40 44 48 53 55 55 54 53 53 54 56 63 62 63 65 68 69 70 69 65 66 66 63 64 69 70 68 70 68 69 69 69 70 70 70 68 69 69 68 69
27 40 37 33 33 37 38 35 34 38 43 47 52 53 54 54 53 54 55 57 60 61 60 65 67 70 70 70 70 70 67 65 64 65 70 69 69 69 70 70 69 68 68 69 70 70 69 70 69
24 32 33 33 32 35 35 37 36 40 41 46 50 52 52 53 53 54 55 58 60 62 61 64 66 70 70 70 71 70 69 63 66 64 70 70 71 71 71 70 71 70 69 70 69 70 69 69 69
20 27 32 32 31 34 34 43 37 43 39 45 48 50 50 51 52 54 56 58 60 62 64 65 63 68 71 71 72 69 67 68 65 67 69 68 70 71 72 71 70 70 71 69 69 69 67 67 60
21 25 29 33 32 34 37 46 47 48 38 42 46 47 49 50 52 54 54 57 60 62 65 65 66 66 70 71 71 71 70 69 70 68 70 71 70 72 71 70 70 70 68 69 68 67 67 60 57
18 25 27 33 34 32 46 49 46 45 42 40 43 46 48 49 50 54 55 56 58 61 65 66 66 67 71 71 72 71 69 70 70 71 69 71 71 70 70 71 70 70 68 68 67 66 64 59 60
20 25 26 33 43 32 41 47 49 47 44 41 41 44 46 48 51 53 55 57 58 61 65 67 68 68 72 71 70 69 69 70 70 69 72 71 71 70 70 71 70 69 68 67 67 65 60 58 62
21 24 28 34 42 39 34 47 50 48 42 42 42 42 44 46 49 53 56 57 58 61 65 68 69 72 71 70 71 69 69 69 70 70 71 70 72 72 72 72 69 68 68 67 66 63 62 59 62
20 23 26 31 36 34 32 32 36 42 44 43 43 44 44 45 46 53 55 57 58 62 66 68 70 72 70 71 69 70 70 71 69 70 69 73 72 72 71 70 69 70 68 68 65 63 60 59 62
18 21 24 29 31 31 33 29 35 37 44 43 42 43 45 45 46 48 54 58 58 61 66 69 71 71 72 72 71 69 67 67 64 63 64 69 70 68 71 71 70 69 69 66 64 64 61 60 58
18 21 22 24 29 33 37 34 35 39 38 42 41 43 43 46 46 46 52 56 58 61 65 69 72 72 73 72 72 71 68 65 67 65 67 67 68 66 72 70 69 70 67 66 62 64 63 62 59
17 19 20 22 23 27 35 32 35 37 38 38 39 39 46 44 46 47 49 55 58 60 63 67 72 73 73 74 73 73 69 68 66 65 70 67 69 67 68 68 70 69 67 66 63 64 62 62 62
12 17 19 19 21 21 28 36 37 36 39 38 40 41 45 47 46 48 49 51 58 59 61 66 72 73 74 74 74 73 73 71 68 70 69 66 64 66 67 69 71 71 68 67 66 64 65 63 62
9 13 18 19 20 22 23 24 35 39 40 42 44 43 42 45 47 49 51 51 57 59 61 64 71 73 74 74 74 74 73 73 72 70 70 66 65 63 69 70 71 70 69 68 66 66 64 63 63
6 10 14 17 20 20 21 23 26 33 37 42 42 37 38 42 46 47 52 53 54 59 61 63 70 72 74 75 75 75 75 73 72 71 70 70 66 69 69 70 71 70 69 67 68 65 65 65 65
5 11 10 12 17 19 20 22 25 35 37 37 37 36 37 38 44 46 47 52 54 57 61 64 67 73 74 75 75 75 75 75 73 72 72 69 70 67 71 70 70 69 69 68 68 65 66 65 65
7 4 7 11 16 17 19 21 26 29 38 36 36 34 34 30 40 45 47 49 53 55 59 63 65 71 73 75 75 75 75 75 74 72 72 72 71 68 70 70 69 69 69 68 68 65 65 64 63
9 9 7 9 18 16 17 19 22 32 35 36 33 33 33 31 30 35 47 49 52 53 56 60 63 65 71 74 74 75 75 75 75 73 73 73 72 71 70 69 69 69 68 68 68 65 63 65 65

GFSSGP_sfc_30mbdewp_033.txt.gz
Dewpoint
73 72 72 67 58 58 50 49 55 53 56 59 59 58 58 60 55 53 65 68 69 70 71 72 72 71 71 72 73 73 74 74 74 75 75 74 73 73 74 73 72 72 71 71 71 71 71 71 70
71 71 66 64 55 50 49 53 52 54 58 58 56 57 58 58 62 64 66 68 70 70 71 72 72 72 71 72 73 73 72 73 74 75 74 74 72 73 72 72 72 71 71 71 71 71 71 71 70
69 69 58 59 54 49 50 52 51 55 56 56 56 56 58 59 63 64 67 68 69 70 71 72 73 73 72 72 72 73 73 72 73 74 73 73 72 72 72 72 71 71 71 70 70 70 70 70 70
66 69 67 58 50 52 50 53 53 54 56 57 57 57 59 62 62 65 67 67 67 69 72 73 73 73 73 72 72 72 72 72 73 74 73 72 71 72 71 71 71 71 71 71 71 70 70 70 70
67 65 57 55 49 50 52 51 52 53 57 56 58 57 60 63 64 65 65 66 68 69 72 73 74 73 74 73 72 73 72 72 73 73 72 72 71 72 71 70 70 71 71 71 71 70 69 70 70
65 63 56 49 44 48 48 52 52 54 57 57 58 59 61 64 64 65 65 65 67 69 71 72 74 73 74 73 73 73 72 72 73 73 72 72 72 72 71 70 70 71 71 71 71 70 69 69 69
62 59 53 49 42 45 47 51 52 54 56 57 59 59 61 63 64 64 65 66 67 68 70 72 73 74 74 74 73 73 72 72 73 72 72 73 72 71 70 70 71 70 71 71 71 71 70 70 70
63 59 53 42 36 46 47 47 50 53 54 58 61 59 59 63 64 65 65 67 67 69 71 72 73 74 74 74 73 72 72 72 72 72 72 72 72 71 71 70 71 70 70 70 71 71 71 70 69
59 54 51 44 35 38 45 46 50 54 55 57 56 61 62 63 64 64 65 66 68 69 71 71 72 73 72 72 72 73 73 72 72 72 72 72 72 71 71 71 72 70 70 71 71 71 71 70 70
54 52 49 44 42 37 47 48 49 53 55 56 56 60 62 62 62 63 64 64 66 67 69 71 71 71 71 70 71 72 72 72 72 72 72 73 71 70 70 70 70 70 71 68 72 71 71 69 69
54 48 48 43 44 43 40 43 45 51 52 53 56 57 60 60 60 61 63 62 63 65 67 70 71 71 69 68 71 72 72 71 71 71 71 71 70 71 70 70 68 70 70 70 70 70 69 70 69
46 50 47 46 45 44 38 40 43 44 51 55 56 58 59 57 60 61 62 63 63 65 64 66 66 69 68 69 69 71 71 70 70 71 72 71 70 69 70 70 68 69 71 69 68 70 69 70 70
46 43 41 42 44 44 37 41 42 44 53 54 54 54 57 56 61 62 63 65 64 65 66 66 67 69 70 69 69 70 70 70 70 71 70 68 69 67 70 69 70 68 71 70 67 68 69 70 69
47 43 39 40 44 40 35 35 43 47 53 54 54 54 54 54 61 60 62 63 64 65 65 67 67 70 69 70 70 72 69 66 69 70 69 69 70 69 70 70 71 68 68 70 70 69 69 70 68
29 43 41 38 39 39 38 33 40 47 52 54 55 55 55 54 54 55 63 63 62 63 63 67 68 70 70 69 70 69 70 67 66 68 71 69 71 69 69 69 69 70 70 71 68 69 69 69 67
22 21 20 35 32 37 38 40 38 43 51 53 54 55 55 55 54 55 59 63 62 62 66 67 67 67 68 69 71 69 68 67 67 69 69 70 72 71 70 70 69 72 70 68 68 68 66 63 59
18 18 19 33 34 35 41 41 42 45 48 51 52 52 53 54 54 55 59 61 62 61 66 65 67 68 68 70 72 70 68 70 69 69 69 69 71 71 71 71 70 70 70 70 68 67 64 56 56
16 18 19 32 35 41 43 41 43 46 46 47 50 51 51 52 53 56 57 60 63 62 65 66 66 69 70 72 71 70 70 70 71 69 68 71 71 72 70 71 71 69 70 68 66 65 64 60 60
18 19 19 29 39 43 45 43 40 41 43 44 48 49 50 51 52 55 56 59 62 64 66 65 66 71 70 71 70 70 70 69 70 71 71 71 71 70 71 70 71 70 69 66 67 62 58 58 62
16 17 20 39 38 37 44 42 43 40 42 45 45 48 48 50 51 55 55 57 60 63 66 66 67 71 70 71 71 70 69 69 68 70 72 71 71 70 70 70 69 69 68 67 63 59 61 60 62
15 17 20 35 38 40 38 43 45 39 42 46 46 47 48 49 50 53 55 57 59 62 66 67 68 71 71 72 71 70 71 70 70 71 71 71 70 71 72 71 69 69 68 67 63 62 60 57 59
14 17 21 36 36 37 39 40 46 44 45 46 46 43 46 48 50 52 55 57 59 63 67 68 70 71 71 71 70 69 67 68 69 69 70 70 71 71 71 71 68 69 69 65 62 61 61 59 54
13 19 22 21 33 37 36 38 43 48 47 46 44 43 43 46 48 52 55 56 59 63 66 69 69 72 70 70 70 68 68 68 68 67 69 70 71 71 70 71 69 69 68 66 63 59 61 62 62
9 15 18 20 24 33 33 39 36 37 45 45 43 43 44 44 46 49 53 57 57 62 66 69 69 70 71 69 70 71 70 66 64 67 68 69 67 69 70 70 70 69 65 62 63 64 61 61 61
6 6 12 16 19 21 35 34 36 36 37 45 44 43 43 45 45 46 52 55 58 60 66 69 70 70 72 71 71 71 72 69 67 69 68 67 65 65 70 68 70 67 66 64 64 62 62 62 61
4 3 9 15 18 20 26 35 35 36 38 42 44 44 44 45 46 46 48 54 58 59 64 69 70 70 71 72 71 71 71 73 70 70 70 67 67 65 68 69 70 68 67 65 66 64 65 64 62
8 3 8 12 18 21 22 23 33 37 41 42 39 40 41 43 47 48 48 52 57 59 64 67 70 70 72 72 72 71 71 71 73 72 69 70 67 67 67 71 70 69 67 67 66 64 63 64 63
4 10 5 7 8 14 18 22 26 36 41 41 39 42 44 45 44 50 49 50 57 59 61 66 71 71 72 72 73 73 73 72 72 73 71 69 69 70 68 70 71 69 68 67 66 65 65 64 64
10 5 6 10 11 12 16 19 25 33 41 43 42 42 42 42 44 48 50 51 57 59 61 63 70 71 72 72 72 73 73 74 73 72 72 71 69 70 69 70 70 69 69 67 67 65 65 65 62
11 7 5 7 13 17 12 14 24 26 41 41 42 42 43 43 44 44 49 52 54 59 60 63 70 71 72 73 73 73 73 74 74 73 71 71 70 70 70 69 70 69 69 68 67 65 65 63 64

GFSSGP_sfc_30mbdewp_036.txt.gz
Dewpoint
72 72 71 66 57 57 51 51 54 54 55 59 59 59 59 60 55 53 66 68 68 70 71 71 72 72 73 74 74 74 73 74 74 74 73 73 73 73 72 72 72 71 71 71 71 71 71 71 70
72 71 65 63 56 50 49 53 53 56 57 58 57 58 58 58 62 64 66 68 69 70 71 72 72 73 72 73 74 74 73 73 74 74 73 73 73 72 72 72 71 71 71 71 71 71 71 71 71
71 66 58 58 55 50 50 53 56 56 56 55 56 58 59 60 64 66 68 69 70 70 71 72 72 72 72 72 73 73 73 73 73 73 72 72 72 72 72 71 71 71 71 71 71 70 70 70 70
69 67 65 57 52 53 52 54 57 56 56 56 57 58 61 64 64 66 69 69 70 70 72 72 72 71 71 72 72 72 72 72 73 73 72 72 72 72 72 71 71 71 71 71 71 71 71 70 70
68 63 57 55 52 51 53 55 55 55 56 57 58 59 60 63 66 68 68 69 69 71 72 73 73 73 72 72 72 72 72 72 73 73 72 72 72 71 71 71 71 71 72 72 71 70 70 70 70
64 61 54 50 50 51 54 55 56 56 58 59 59 59 61 64 66 67 67 68 70 71 73 73 74 74 73 72 72 72 71 73 73 73 72 72 72 71 71 70 71 71 71 71 71 70 69 69 70
59 55 54 54 53 51 53 57 56 57 58 58 59 58 62 63 65 65 67 68 69 71 72 73 73 73 73 73 73 72 72 72 72 72 73 72 72 72 71 70 71 71 71 71 71 71 70 70 70
61 55 54 53 47 49 52 56 57 57 56 60 60 59 60 63 65 65 66 67 68 70 72 73 73 74 74 74 73 72 72 72 72 72 72 73 72 71 71 71 71 71 70 70 71 71 71 70 70
60 51 48 47 45 47 52 54 57 57 58 56 59 61 62 64 65 65 66 66 68 70 71 73 73 73 74 73 73 73 72 72 72 72 72 73 72 72 71 71 71 71 70 71 70 71 71 69 66
54 49 48 49 47 45 49 54 55 56 57 58 59 62 63 64 64 64 65 66 68 69 70 72 73 72 72 72 72 73 72 73 72 72 72 73 72 71 71 70 71 70 70 66 72 70 69 71 68
54 45 48 45 44 47 51 54 55 57 55 58 60 61 62 63 64 64 65 67 68 69 70 71 72 72 71 70 71 72 72 72 71 71 71 71 71 70 71 70 71 69 71 70 71 70 69 70 70
52 52 47 47 47 44 49 54 54 55 55 58 61 61 62 62 63 64 65 66 67 69 69 70 70 70 70 69 71 71 71 71 70 70 71 71 71 70 70 69 70 69 72 69 67 70 69 70 70
50 48 47 47 45 43 43 49 53 53 56 58 61 61 61 61 62 64 64 65 66 68 68 69 70 69 69 69 69 70 71 71 70 70 70 71 70 70 69 70 70 70 70 69 67 68 69 70 69
48 47 45 46 45 42 41 43 47 53 56 58 60 60 60 60 60 62 63 63 64 66 65 68 68 70 69 69 69 69 70 70 70 70 70 70 69 69 70 70 70 69 70 69 69 69 69 69 68
44 38 41 43 41 42 40 44 50 55 55 57 59 59 59 58 60 61 63 63 63 65 65 66 66 69 69 69 69 69 71 69 69 70 70 70 70 68 69 68 68 69 70 70 69 69 68 64 60
19 30 32 40 42 38 37 44 52 54 53 54 58 58 56 57 60 61 63 64 63 65 65 66 66 68 69 69 70 69 69 68 68 69 70 70 70 70 69 68 68 71 69 68 68 68 65 61 57
18 17 21 23 32 40 40 39 52 53 53 53 53 53 55 57 60 60 62 64 63 64 64 67 66 69 69 69 70 68 68 67 69 69 70 70 71 70 70 69 69 71 70 68 68 67 62 56 57
19 16 18 20 40 41 39 41 49 53 54 54 54 54 54 54 55 58 63 63 63 63 66 67 66 67 68 69 70 69 68 69 71 69 69 70 72 72 70 70 70 70 70 68 67 65 63 58 60
15 16 17 21 31 39 40 40 46 50 53 53 54 54 54 54 55 56 62 63 62 65 66 67 67 67 67 69 69 69 67 68 70 69 68 70 71 71 70 69 70 70 68 67 66 62 57 56 62
14 13 14 32 41 42 42 41 39 45 50 52 52 53 53 54 54 55 59 61 61 63 65 65 67 68 68 68 69 69 69 69 69 70 71 70 70 70 71 69 70 69 69 67 63 58 58 60 61
15 13 14 18 38 41 42 41 41 42 44 45 51 52 52 52 52 54 56 60 62 61 65 65 67 69 68 70 70 70 70 69 69 70 70 71 70 71 70 70 70 69 67 66 62 60 57 56 58
15 16 15 18 26 32 37 32 40 41 42 42 46 49 50 51 51 53 55 58 60 62 64 65 67 70 70 70 69 68 68 67 67 68 70 71 71 71 71 71 70 69 68 65 63 63 62 56 57
15 15 16 17 29 35 35 35 37 45 43 41 45 46 48 50 51 51 54 56 59 61 64 65 66 70 70 70 69 68 67 67 68 69 69 70 71 71 71 70 68 69 68 65 62 60 61 60 59
16 12 13 17 25 29 32 36 37 40 42 43 44 46 46 48 50 50 53 55 57 60 64 65 66 69 70 70 70 69 68 67 67 67 68 69 71 70 71 71 68 67 67 65 62 60 61 63 61
13 8 7 9 12 15 32 37 36 39 43 45 44 46 46 46 48 50 52 54 56 59 63 65 67 68 69 70 70 68 68 67 66 66 67 68 68 69 70 70 70 68 65 63 63 63 61 61 60
10 6 4 4 10 15 23 34 35 38 39 46 46 46 46 44 46 48 51 54 55 59 64 66 66 67 68 68 69 70 70 69 67 67 68 68 67 68 70 69 69 67 64 62 63 62 61 62 61
11 6 5 5 15 13 20 31 35 37 39 43 46 46 45 43 44 46 49 53 56 59 63 66 67 67 69 68 68 68 70 71 71 69 69 67 66 65 69 69 69 67 65 64 64 63 62 63 62
12 8 4 6 1 3 11 19 23 31 37 40 44 45 44 44 44 45 47 52 56 57 63 65 67 66 68 69 69 69 68 70 71 72 69 68 66 67 67 68 68 68 66 65 65 63 63 63 63
12 7 6 4 4 3 6 9 20 21 34 40 43 45 44 44 46 46 47 48 54 58 61 66 67 67 68 69 70 69 69 68 70 72 72 69 69 67 66 69 69 68 67 66 65 64 64 62 62
16 12 6 4 5 12 6 9 22 21 28 41 41 43 44 44 47 47 47 48 51 57 58 64 67 67 68 69 70 70 70 70 69 69 71 72 69 69 67 67 69 69 68 67 66 64 64 64 62

GFSSGP_sfc_30mbdewp_042.txt.gz
Dewpoint
71 72 71 67 57 56 51 51 55 55 56 59 58 56 57 59 56 54 67 68 69 69 70 70 72 72 73 73 73 72 72 72 72 72 72 73 72 72 72 71 71 71 71 71 71 71 70 70 70
71 71 66 63 54 50 49 54 54 57 58 58 59 58 58 58 63 64 66 68 69 70 71 70 72 73 73 73 73 73 72 72 72 72 73 72 72 72 71 71 71 71 70 70 71 70 71 71 70
71 69 59 56 54 50 50 53 56 57 57 56 58 60 59 61 64 65 67 69 70 70 71 71 73 74 72 72 73 73 73 72 73 73 72 72 72 71 71 71 71 71 71 71 70 70 70 70 71
69 67 64 54 51 53 53 55 56 56 57 59 59 59 62 64 64 66 67 69 70 70 71 72 72 72 72 72 72 73 72 72 72 72 72 72 72 71 71 71 71 72 72 71 71 71 71 70 70
66 62 53 51 51 54 55 56 56 56 57 58 59 59 61 65 67 66 68 69 69 71 71 72 72 72 72 72 73 72 72 72 72 72 72 72 72 71 71 71 71 72 72 71 70 70 70 70 70
56 60 48 47 51 53 55 57 57 57 59 59 59 59 62 66 65 67 68 69 70 71 72 72 72 72 72 72 72 72 72 72 72 72 72 72 71 71 71 71 71 71 71 71 70 70 70 70 70
54 52 48 51 52 53 55 57 57 57 57 57 60 59 63 64 66 67 69 70 70 72 71 72 71 71 71 72 72 72 72 72 73 72 72 72 72 71 71 71 71 71 70 71 71 71 70 70 71
58 55 52 53 51 51 55 56 58 56 57 60 61 57 60 65 67 68 69 70 71 72 72 72 72 71 71 72 71 71 72 72 73 72 72 72 72 71 71 71 71 72 71 70 70 70 69 69 70
61 51 48 50 51 51 56 56 58 59 58 58 60 60 62 66 67 67 68 69 70 71 71 72 72 72 72 72 72 72 72 72 72 72 72 72 72 71 72 72 72 72 70 70 70 70 70 68 71
56 50 47 51 50 54 56 56 57 57 55 58 59 63 65 65 66 66 65 66 68 69 71 72 72 72 73 73 73 72 71 72 73 72 72 72 72 71 71 72 73 73 72 72 70 70 71 69 69
54 49 49 47 49 55 56 55 57 56 54 58 59 62 64 65 65 65 66 66 67 69 70 72 72 73 73 73 73 72 72 72 72 72 71 71 72 71 70 70 70 69 70 70 70 70 70 70 69
53 54 52 49 48 55 55 56 55 54 52 59 61 63 64 64 64 65 65 65 66 68 70 72 72 72 72 72 72 72 72 72 71 71 70 70 69 70 70 70 69 68 69 70 68 69 69 70 70
54 54 52 51 47 54 55 55 55 53 58 59 61 63 63 63 64 65 65 66 66 67 69 71 72 72 72 71 71 71 71 71 71 70 70 70 70 70 70 70 69 69 70 70 69 68 68 69 69
50 51 50 48 47 49 54 54 55 55 58 59 61 62 63 63 64 65 65 66 66 67 68 70 71 72 71 71 70 70 70 70 70 70 69 69 70 70 70 69 69 69 70 70 69 69 69 68 68
40 39 43 47 48 46 54 53 53 56 59 59 60 61 62 63 64 64 65 66 67 67 68 69 70 71 70 70 69 69 69 70 69 69 69 69 70 70 69 69 69 69 69 70 70 69 68 62 58
35 43 37 36 40 44 52 48 54 57 59 58 60 61 62 62 63 64 65 66 67 67 68 69 69 70 70 69 68 69 68 68 69 70 70 70 70 70 69 70 69 69 70 70 68 68 65 60 57
21 24 26 26 29 36 47 43 46 57 58 58 59 60 61 62 63 64 65 66 67 67 67 68 69 69 69 69 68 68 68 69 69 69 70 70 70 70 69 69 69 69 69 69 68 67 63 57 58
25 21 21 23 28 37 40 40 48 56 57 57 58 59 60 61 62 63 64 65 66 66 67 67 68 68 69 68 69 69 69 69 68 68 69 70 70 70 70 69 69 70 70 69 68 65 62 59 60
26 21 22 20 23 38 38 40 52 55 57 57 57 57 59 60 61 62 63 65 65 66 66 66 67 68 68 68 68 68 67 68 68 70 69 69 70 71 70 70 70 70 70 69 68 64 60 57 60
20 18 18 17 18 28 33 38 53 55 55 57 58 58 58 58 59 60 61 63 64 64 65 66 66 67 67 68 68 68 68 68 68 69 69 69 70 71 71 70 69 70 69 68 66 62 59 59 60
21 21 19 18 29 41 41 39 50 54 54 56 58 58 58 58 59 58 60 62 64 64 64 66 66 66 67 67 68 69 69 69 68 68 69 69 70 71 71 71 69 70 69 68 66 61 57 56 60
20 19 18 17 16 15 41 34 44 51 53 53 54 57 57 58 58 57 59 61 62 64 64 65 66 66 67 68 67 67 66 67 67 67 68 70 70 70 71 71 70 69 69 68 66 61 58 57 57
20 19 17 16 18 19 25 37 36 48 51 52 52 53 54 56 56 56 57 60 61 63 64 64 65 67 67 67 67 67 66 67 67 68 68 69 70 71 71 70 70 69 68 68 65 62 60 57 56
21 18 17 19 18 15 16 20 23 40 48 51 52 53 54 54 55 55 56 58 59 62 63 64 65 66 67 67 67 67 66 66 66 67 67 68 69 70 71 71 70 70 69 67 65 63 62 58 59
19 18 14 12 13 14 17 22 19 36 42 47 50 51 53 54 55 55 55 55 59 61 62 63 65 65 66 67 67 67 67 67 67 66 67 67 68 69 70 71 70 69 69 68 66 63 61 61 60
17 17 14 8 10 13 18 16 19 27 42 44 46 48 49 51 54 55 55 55 56 60 62 63 65 65 66 67 67 67 68 67 67 67 67 67 68 69 70 70 70 69 69 68 66 62 60 61 61
16 15 15 10 16 12 14 18 23 28 29 41 43 43 43 45 49 53 54 54 55 58 61 62 64 65 66 67 68 68 68 68 67 67 67 67 68 69 70 71 70 69 68 67 65 63 61 61 61
15 16 14 13 10 8 9 12 14 24 27 31 36 43 44 45 45 50 52 53 54 56 59 62 63 64 65 67 68 68 68 68 68 68 67 67 68 68 69 70 70 70 68 66 65 63 62 61 61
16 13 13 15 11 6 6 7 18 22 26 22 24 35 43 45 46 47 50 52 53 54 57 60 62 64 64 67 68 68 68 68 68 68 67 67 67 68 68 69 69 69 68 66 65 63 62 62 61
18 17 11 12 9 10 8 7 15 14 17 31 30 32 42 46 46 47 48 50 52 53 55 58 61 63 64 65 68 68 68 68 68 68 68 68 67 67 67 69 69 69 68 67 66 64 62 62 62

GFSSGP_sfc_30mbdewp_045.txt.gz
Dewpoint
71 72 71 68 58 57 50 51 55 54 55 58 58 56 56 59 56 55 67 68 69 69 71 71 72 73 73 74 74 73 72 72 73 73 73 73 72 72 72 72 71 71 71 71 71 70 70 71 70
71 70 68 63 54 49 50 54 55 56 58 58 58 58 58 58 62 65 66 67 68 68 68 70 73 73 73 73 73 73 72 72 73 73 72 72 72 71 71 71 71 71 70 70 70 71 71 70 70
71 69 59 57 54 50 50 54 56 57 57 56 58 59 59 60 64 65 66 67 67 67 68 72 73 73 72 72 72 72 72 72 73 73 72 72 72 71 71 71 71 71 71 71 70 70 70 70 70
69 67 64 55 49 53 53 55 56 56 57 58 58 58 62 63 64 65 68 67 67 67 68 72 73 72 72 73 73 73 72 73 73 72 72 72 71 71 71 72 72 71 71 71 71 71 70 70 70
67 62 54 51 49 53 54 56 56 55 57 57 58 58 61 65 66 67 67 67 66 66 69 71 73 72 72 72 73 72 72 72 72 73 72 72 71 71 71 72 72 71 71 70 70 70 70 70 69
58 60 51 45 49 52 55 56 56 56 58 58 58 58 62 66 65 66 67 66 66 67 69 69 72 73 72 72 72 72 72 72 72 72 72 72 71 71 71 71 71 71 71 70 70 70 70 70 70
57 53 50 49 49 52 55 57 56 56 56 57 59 57 63 64 65 66 66 67 67 68 69 69 69 71 72 72 72 72 72 73 73 72 72 72 71 71 71 71 71 70 70 70 71 71 70 70 70
58 55 49 50 49 50 55 56 57 55 56 59 59 57 60 63 65 66 66 67 67 68 70 70 69 69 70 70 72 72 72 73 73 73 72 72 72 71 71 72 72 71 70 70 70 70 70 70 70
59 53 47 48 49 50 56 56 57 58 57 57 59 60 61 64 65 65 65 66 67 68 68 68 69 70 70 70 70 71 72 72 72 72 72 71 71 71 71 71 72 71 70 71 70 70 71 69 71
59 54 47 49 50 52 55 55 56 56 54 57 60 61 63 64 65 64 64 64 65 66 67 68 67 68 70 69 71 71 70 69 70 71 71 71 71 71 70 72 72 72 71 71 71 71 71 70 67
57 50 49 47 49 52 55 55 56 55 53 56 59 61 63 63 63 63 63 63 64 65 66 67 68 69 69 68 70 71 69 69 70 72 72 71 70 71 70 70 70 69 70 69 69 69 69 70 68
52 53 51 50 49 51 54 55 55 54 50 54 60 62 62 62 62 62 62 63 64 65 66 67 70 71 70 69 70 70 69 69 68 69 71 70 69 70 71 70 70 70 70 71 69 69 71 70 70
52 52 53 52 50 48 54 55 54 54 58 58 61 62 62 62 62 62 62 63 64 64 65 68 70 71 71 71 70 70 70 68 67 69 68 68 68 71 71 72 71 71 71 70 70 70 70 69 68
51 53 51 48 46 51 53 54 55 55 59 59 60 61 61 61 61 62 62 62 63 64 64 67 69 71 72 71 71 71 70 69 69 67 67 69 69 72 70 71 70 70 71 71 70 70 70 69 68
41 40 39 42 45 47 53 53 53 56 58 59 59 60 61 61 61 62 62 63 63 63 64 66 69 70 72 71 71 70 69 68 67 66 68 68 69 71 72 71 70 69 71 72 71 71 69 63 60
34 38 34 39 44 46 49 42 52 57 57 57 58 59 60 61 62 63 63 63 64 63 65 66 67 68 70 71 71 69 68 67 66 66 67 70 70 72 72 70 70 71 71 71 70 69 67 62 60
27 27 31 33 41 42 47 40 47 56 56 57 58 58 59 60 61 62 63 64 65 66 66 66 67 67 69 70 70 69 68 67 66 67 69 71 71 71 72 70 70 72 70 70 70 69 66 60 62
26 26 26 29 30 37 44 40 44 55 56 56 57 58 58 59 60 62 63 64 65 66 68 68 68 69 70 69 70 68 67 66 68 68 69 71 72 72 72 71 71 71 70 70 69 69 65 61 61
23 25 28 28 27 33 33 34 40 53 55 56 56 57 57 57 59 62 63 64 65 66 67 68 69 69 69 68 67 65 64 66 68 69 71 71 72 72 73 71 71 71 70 70 70 68 66 62 63
22 21 26 25 21 24 25 30 40 50 54 55 56 57 57 57 58 61 63 64 65 65 67 68 69 69 70 68 67 64 65 66 68 69 71 71 71 72 72 71 71 71 70 71 70 68 64 60 62
20 18 21 24 21 33 32 30 43 50 54 55 56 57 57 57 57 59 61 63 64 65 67 68 69 70 70 69 68 68 68 69 68 68 70 70 72 72 72 72 71 71 71 69 70 68 65 58 62
16 18 17 23 24 23 36 26 41 46 52 54 55 56 56 56 58 58 59 61 63 65 66 68 69 70 70 71 68 68 65 65 66 68 68 69 71 71 72 72 72 72 70 70 70 68 65 62 59
17 18 19 18 23 22 23 26 27 45 48 51 53 55 56 56 57 57 58 60 62 64 64 66 68 69 69 70 69 68 67 66 67 68 69 71 71 72 71 72 72 72 71 71 70 68 65 62 59
23 21 19 21 20 19 22 23 24 37 45 48 51 53 56 56 56 58 58 59 61 62 64 65 68 69 70 70 70 69 68 68 67 68 68 68 68 69 72 72 72 72 71 71 70 69 67 64 61
21 18 14 15 16 16 20 20 22 27 38 42 48 52 53 56 56 57 58 58 61 62 64 65 67 68 69 69 69 69 69 69 69 69 68 67 67 67 69 72 72 72 72 71 70 69 67 66 61
21 14 7 7 8 10 20 18 21 24 25 40 41 46 51 53 55 56 58 58 59 62 63 65 66 67 68 69 69 70 70 69 69 69 67 67 67 67 69 71 72 72 72 71 71 69 67 66 64
19 17 12 9 15 11 12 17 21 27 26 28 41 44 48 51 54 55 56 57 58 60 62 65 66 67 68 69 69 69 70 70 68 69 70 68 69 68 69 70 71 72 72 72 71 68 67 65 65
16 18 14 14 6 5 8 14 12 24 24 30 34 42 45 48 50 53 55 57 58 59 62 65 66 67 68 68 69 69 69 70 70 70 70 69 70 70 68 71 72 72 72 72 71 69 68 66 64
15 16 13 13 10 3 2 1 20 24 28 27 30 37 40 43 45 48 52 57 58 59 59 63 65 66 67 68 68 69 69 69 70 70 70 70 70 71 71 71 71 71 71 71 71 69 67 66 65
15 15 16 12 16 11 6 5 20 23 28 31 30 32 37 40 43 46 47 52 55 58 58 60 63 64 66 67 68 69 69 70 69 70 70 70 70 71 71 71 70 71 71 71 70 69 67 67 65

GFSSGP_sfc_30mbdewp_048.txt.gz
Dewpoint
70 69 69 68 59 56 49 50 52 53 54 56 56 55 57 59 58 56 66 69 69 68 70 70 72 73 73 74 74 73 73 72 73 73 73 72 72 72 72 72 72 72 71 71 71 71 71 71 71
70 70 68 61 56 49 49 51 51 53 56 57 57 57 56 57 62 65 66 68 68 67 69 70 72 73 73 73 73 73 72 73 73 73 72 72 72 71 71 71 70 70 70 71 71 71 70 70 70
70 69 60 58 53 48 48 52 54 56 56 55 56 57 58 60 63 64 66 67 66 66 69 70 73 73 73 73 72 72 72 73 73 72 72 72 71 71 71 71 71 71 71 70 70 70 70 70 70
68 67 62 57 46 50 50 52 54 54 55 56 56 57 61 63 63 65 66 65 64 65 67 72 73 72 72 72 72 72 73 73 72 72 72 71 71 71 72 71 71 71 71 71 71 70 70 70 70
68 61 54 51 47 50 52 54 54 53 55 56 57 57 61 64 64 65 65 64 64 64 66 70 73 73 73 73 73 72 73 73 73 72 72 72 71 71 72 71 71 71 70 70 70 70 70 70 70
60 58 48 43 46 50 53 54 54 53 55 56 56 59 63 65 65 65 65 64 63 63 63 68 73 73 73 73 72 72 72 72 72 72 72 72 71 71 71 71 71 71 70 70 69 70 70 70 70
58 53 46 46 46 48 53 54 53 52 54 55 57 57 63 63 64 65 64 63 62 62 62 65 67 71 73 73 72 72 72 72 72 72 72 71 71 71 71 71 71 70 70 70 70 70 70 70 70
59 53 46 42 42 44 53 54 55 52 53 57 58 57 59 63 64 64 63 63 63 62 63 64 66 67 68 69 72 72 72 73 73 72 72 72 71 71 71 72 71 71 70 70 70 70 70 69 70
60 51 43 42 45 47 53 53 54 54 55 55 57 58 60 63 63 63 62 62 64 63 62 63 64 66 66 66 69 72 72 72 72 72 72 71 68 69 69 69 72 71 70 70 70 70 71 69 71
57 50 43 46 48 48 52 52 54 52 53 54 57 59 62 63 63 62 62 63 65 63 62 62 62 64 66 64 68 67 66 65 67 68 69 69 69 69 69 70 72 71 71 71 71 71 70 70 66
55 48 46 46 48 50 52 52 54 51 49 53 55 59 61 62 63 61 61 62 63 62 61 61 62 64 64 63 65 65 64 65 67 70 70 69 69 69 68 67 67 68 69 68 68 67 64 65 65
50 51 48 47 48 48 50 52 53 52 48 52 57 60 60 61 60 60 60 61 62 63 62 62 64 65 65 64 64 64 62 64 64 65 69 69 68 69 69 67 67 69 67 67 67 67 67 65 65
50 49 49 49 48 47 49 51 52 52 52 53 57 59 59 60 60 60 60 61 62 63 63 64 65 67 67 67 64 64 63 62 61 65 67 67 67 69 68 69 67 67 67 66 67 66 66 65 65
45 48 48 47 45 45 49 51 53 53 55 55 57 58 59 59 59 59 59 59 61 62 62 64 66 67 68 68 68 67 66 62 63 63 64 67 68 68 67 68 66 66 67 68 68 67 67 66 66
46 45 45 41 41 45 49 49 51 55 56 55 56 57 58 58 59 59 59 59 60 61 62 63 65 67 69 69 69 68 64 63 61 61 65 67 68 69 72 68 67 66 68 68 67 67 65 64 61
34 33 34 38 40 43 47 40 49 55 56 55 56 56 57 58 58 59 59 59 60 60 62 64 64 65 68 69 69 66 64 62 61 61 64 67 69 70 71 68 67 68 69 68 66 66 66 63 60
26 30 32 37 40 41 44 40 45 53 54 55 55 56 56 57 58 59 59 59 59 61 62 64 65 64 67 69 68 67 65 64 61 62 64 67 70 70 72 68 67 71 67 67 68 68 65 62 60
26 26 31 35 37 39 41 40 41 49 51 53 55 55 55 55 56 58 59 59 60 61 62 64 65 65 67 67 69 66 63 63 61 63 65 68 71 71 72 70 71 72 68 67 68 66 66 63 61
26 26 27 32 35 34 35 36 36 40 50 50 54 55 55 54 55 57 59 59 60 61 63 65 65 67 68 67 65 63 61 62 62 65 68 71 72 72 73 69 71 70 68 66 68 67 66 63 62
23 23 25 29 31 29 32 32 33 35 47 49 52 55 55 55 54 56 58 58 59 61 63 66 67 68 70 67 65 62 61 60 63 66 68 71 71 72 72 71 68 70 67 68 67 67 64 62 59
24 23 22 26 29 27 27 28 30 36 43 48 51 53 55 55 54 55 57 58 59 60 63 65 68 69 70 68 66 65 63 64 64 65 67 70 71 71 72 70 70 70 69 66 68 68 67 60 61
20 23 22 21 25 25 28 27 30 32 40 45 48 51 53 55 55 53 55 58 58 59 62 65 68 70 71 69 65 66 61 60 61 65 65 66 69 69 70 70 71 72 68 67 68 68 67 66 57
17 18 19 20 20 22 24 25 26 31 34 42 46 50 51 54 54 53 53 55 57 60 62 64 68 70 71 71 69 67 65 59 62 64 67 70 69 70 69 70 69 71 71 69 71 69 69 65 60
17 16 16 18 18 17 20 23 23 26 34 36 42 48 51 52 53 55 53 54 57 59 61 63 68 71 71 71 70 70 67 65 63 66 66 67 67 68 71 70 71 72 71 70 71 71 70 68 65
16 16 11 10 11 15 19 20 23 25 27 35 37 42 49 52 52 54 55 53 55 58 60 63 67 71 71 71 70 71 70 70 69 68 67 66 64 64 67 71 70 71 72 71 71 72 69 69 66
16 14 6 8 8 11 16 16 19 24 26 28 36 37 47 50 53 53 55 56 56 57 61 64 67 70 70 70 71 72 72 69 68 68 66 66 65 63 65 69 70 71 70 72 72 71 70 68 68
18 16 10 4 9 9 8 14 18 21 24 26 28 32 36 44 51 53 54 56 57 59 61 65 67 70 71 70 72 72 72 71 67 69 70 68 68 65 66 68 70 70 71 72 72 70 70 68 69
16 18 9 7 4 5 4 7 10 17 20 25 25 27 33 36 46 51 54 55 57 59 61 64 68 70 71 70 71 71 71 72 72 71 71 70 70 70 66 69 69 70 71 72 72 70 70 69 67
14 14 14 8 6 5 7 4 9 13 20 22 23 25 30 34 42 50 52 54 56 58 59 62 66 68 69 69 70 71 71 70 72 71 72 72 72 72 71 70 69 69 70 72 73 72 69 70 68
15 14 15 11 12 9 6 3 9 14 14 21 20 24 28 33 36 45 48 52 54 56 57 59 62 64 66 68 70 71 71 71 70 71 71 72 72 73 73 72 71 70 70 72 72 72 69 69 69